Location: Anankanda
(14.7841°N, 3.0348°W)
Time: 00:57:11
(UTC+00:00)

USA 267 - Pass Details

Date: 17 January 2021
Orbit: 1099 x 1108 km, 123.0° (Epoch: 06 March)

Event Time Altitude Azimuth Distance (km) Brightness Sun altitude
Rises 18:31:24 0° 24° (NNE) 3,909 5.7 -7.2°
Reaches altitude 10° 18:34:02 10° 17° (NNE) 2,953 5.2 -7.8°
Maximum altitude 18:40:00 40° 311° (NW) 1,577 4.4 -9.2°
Drops below altitude 10° 18:45:59 10° 244° (WSW) 2,957 7.1 -10.5°
Sets 18:48:38 0° 237° (WSW) 3,915 7.9 -11.1°
